Location: Hylvaty SDH
(49.9612°N, 16.4057°E)
Time: 12:04:54
(UTC+01:00)

Tiros 1 - Pass Details

Date: 10 October 2020
Orbit: 630 x 663 km, 48.4° (Epoch: 28 October)

Event Time Altitude Azimuth Distance (km) Brightness Sun altitude
Rises 10:16:52 0° 197° (SSW) 2,909 10.9 25.1°
Reaches altitude 10° 10:19:58 10° 175° (S) 2,010 10.7 25.4°
Maximum altitude 10:22:42 16° 139° (SE) 1,676 11.7 25.7°
Drops below altitude 10° 10:25:27 10° 103° (ESE) 2,028 10.6 26.0°
Sets 10:28:36 0° 81° (E) 2,948 10.9 26.3°
